Latest Weather Observations for Westmere

IDV60801

Issued at 10:35 pm EST Wednesday 23 April 2014 (issued every 30 minutes, with the page automatically refreshed every 10 minutes)

About weather observations | Map of weather stations | Latest weather observations for VIC | Other Formats
Station Details ID: 089112 Name: WESTMERE Lat: -37.71 Lon: 142.94 Height: 226.0 m
Data from the previous 72 hours. | See also: Recent months at Westmere
Date/Time
EST
Temp
°C
App
Temp
°C
Dew
Point
Rel
Hum
%
Delta-T
°C
Wind Press
QNH
hPa
Press
MSL
hPa
Rain
since 9 am
mm
Dir
 
Spd
km/h
Gust
km/h
Spd
kts
Gust
kts
23/10:30pm 11.6 8.5 7.1 74 2.2 N 13 15 7 8 1013.0 - 0.2
23/10:00pm 11.4 8.3 7.1 75 2.1 N 13 17 7 9 1013.0 1012.8 0.2
23/09:30pm 11.2 8.4 6.9 75 2.1 N 11 15 6 8 1013.1 - 0.2
23/09:00pm 11.2 8.9 7.5 78 1.8 N 9 11 5 6 1013.2 1013.0 0.2
23/08:30pm 10.6 8.8 7.3 80 1.6 N 6 7 3 4 1013.3 - 0.2
23/08:00pm 12.0 9.7 7.5 74 2.2 N 9 9 5 5 1013.5 1013.3 0.2
23/07:30pm 13.5 11.2 7.5 67 3.0 NNW 9 11 5 6 1013.5 - 0.2
23/07:00pm 12.6 10.8 8.1 74 2.2 N 7 9 4 5 1013.3 1013.1 0.2
23/06:30pm 12.9 11.3 8.0 72 2.4 W 6 6 3 3 1013.2 - 0.2
23/06:00pm 14.3 13.0 7.6 64 3.3 W 4 6 2 3 1013.2 1013.0 0.2
23/05:30pm 15.1 13.4 7.6 61 3.8 W 6 7 3 4 1013.2 - 0.2
23/05:00pm 15.7 13.4 7.5 58 4.1 NW 9 13 5 7 1013.1 1012.9 0.2
23/04:30pm 16.8 14.4 7.2 53 4.8 WNW 9 13 5 7 1013.3 - 0.2
23/04:00pm 17.1 13.8 6.6 50 5.2 NW 13 19 7 10 1013.4 1013.2 0.2
23/03:30pm 16.8 13.7 7.2 53 4.8 NNW 13 19 7 10 1013.6 - 0.2
23/03:00pm 16.8 12.9 6.9 52 5.0 WNW 17 26 9 14 1014.0 1013.8 0.0
23/02:30pm 16.4 11.9 6.2 51 5.0 NW 19 26 10 14 1014.2 - 0.0
23/02:00pm 16.3 12.6 6.2 51 5.0 NW 15 24 8 13 1014.3 1014.1 0.0
23/01:30pm 16.4 13.3 7.3 55 4.6 NW 13 20 7 11 1014.6 - 0.0
23/01:00pm 15.4 12.0 7.7 60 3.9 N 15 20 8 11 1014.9 1014.7 0.0
23/12:30pm 15.0 12.5 8.0 63 3.5 NNW 11 20 6 11 1015.6 - 0.0
23/12:00pm 14.6 12.1 8.1 65 3.3 NW 11 20 6 11 1016.2 1016.1 0.0
23/11:30am 14.1 11.7 8.7 70 2.8 W 11 17 6 9 1016.9 - 0.0
23/11:00am 13.6 11.1 8.2 70 2.7 WNW 11 15 6 8 1017.3 1017.1 0.0
23/10:30am 13.8 11.8 8.8 72 2.6 WNW 9 17 5 9 1017.3 - 0.0
23/10:00am 13.2 11.5 9.8 80 1.8 NW 9 11 5 6 1017.5 1017.3 0.0
23/09:30am 11.9 11.0 10.5 91 0.7 NW 6 7 3 4 1017.4 - 0.0
23/09:00am 10.4 9.4 10.2 99 0.1 N 6 7 3 4 1017.6 1017.4 0.0
23/08:30am 8.2 6.6 8.1 99 0.0 S 6 7 3 4 1017.5 - 0.0
23/08:00am 5.9 4.9 5.8 99 0.0 CALM 0 0 0 0 1017.7 1017.5 0.0
23/07:30am 2.7 1.1 2.6 99 0.0 CALM 0 0 0 0 1017.5 - 0.0
23/07:00am 1.2 -0.6 1.1 99 0.0 CALM 0 2 0 1 1016.9 1016.8 0.0
23/06:30am 2.3 -0.5 2.2 99 0.0 S 6 7 3 4 1016.7 - 0.0
23/06:00am 2.7 0.8 2.6 99 0.0 S 2 4 1 2 1016.7 1016.6 0.0
23/05:30am 2.3 0.7 2.2 99 0.0 CALM 0 4 0 2 1016.6 - 0.0
23/05:00am 2.4 -0.6 2.3 99 0.0 S 7 9 4 5 1016.6 1016.5 0.0
23/04:30am 2.0 0.3 1.9 99 0.0 CALM 0 0 0 0 1016.6 - 0.0
23/04:00am 3.3 1.8 3.2 99 0.0 CALM 0 6 0 3 1016.6 1016.5 0.0
23/03:30am 2.4 0.8 2.3 99 0.0 CALM 0 0 0 0 1016.5 - 0.0
23/03:00am 2.8 1.2 2.7 99 0.0 CALM 0 0 0 0 1016.7 1016.6 0.0
23/02:30am 3.3 1.8 3.2 99 0.0 CALM 0 0 0 0 1016.7 - 0.0
23/02:00am 3.6 2.2 3.5 99 0.0 CALM 0 0 0 0 1017.2 1017.0 0.0
23/01:30am 3.8 2.4 3.5 98 0.1 CALM 0 0 0 0 1017.5 - 0.0
23/01:00am 5.2 4.1 5.1 99 0.0 CALM 0 0 0 0 1017.6 1017.4 0.0
23/12:30am 5.0 3.4 4.7 98 0.1 S 2 4 1 2 1017.9 - 0.0
23/12:00am 4.8 3.2 4.4 97 0.2 S 2 4 1 2 1018.0 1017.8 0.0
 
Date/Time
EST
Temp
°C
App
Temp
°C
Dew
Point
Rel
Hum
%
Delta-T
°C
Wind Press
QNH
hPa
Press
MSL
hPa
Rain
since 9 am
mm
Dir
 
Spd
km/h
Gust
km/h
Spd
kts
Gust
kts
22/11:30pm 6.4 4.7 6.0 97 0.2 S 4 6 2 3 1018.1 - 0.0
22/11:00pm 6.5 4.5 6.2 98 0.1 S 6 7 3 4 1018.3 1018.1 0.0
22/10:30pm 5.6 3.8 5.2 97 0.2 S 4 6 2 3 1018.3 - 0.0
22/10:00pm 7.4 6.6 6.7 95 0.3 CALM 0 0 0 0 1018.4 1018.2 0.0
22/09:30pm 6.7 5.6 5.2 90 0.7 CALM 0 0 0 0 1018.3 - 0.0
22/09:00pm 9.4 8.9 7.8 90 0.8 CALM 0 0 0 0 1018.2 1018.0 0.0
22/08:30pm 8.4 7.4 7.3 93 0.5 S 2 4 1 2 1018.1 - 0.0
22/08:00pm 8.5 7.8 6.8 89 0.8 CALM 0 2 0 1 1017.9 1017.7 0.0
22/07:30pm 9.9 8.1 7.3 84 1.3 S 6 7 3 4 1017.6 - 0.0
22/07:00pm 10.6 8.4 7.8 83 1.4 S 9 9 5 5 1017.5 1017.3 0.0
22/06:30pm 11.6 9.6 8.5 81 1.5 S 9 13 5 7 1017.0 - 0.0
22/06:00pm 12.9 11.0 9.2 78 1.9 S 9 11 5 6 1016.7 1016.6 0.0
22/05:30pm 14.0 11.0 9.2 73 2.5 S 15 22 8 12 1016.4 - 0.0
22/05:00pm 15.2 11.6 9.8 70 2.8 SSW 19 28 10 15 1016.0 1015.9 0.0
22/04:30pm 15.4 11.8 9.7 69 3.0 SW 19 26 10 14 1015.8 - 0.0
22/04:00pm 16.3 13.0 11.0 71 2.9 S 19 26 10 14 1015.4 1015.3 0.0
22/03:30pm 16.6 13.2 10.5 67 3.3 SSW 19 24 10 13 1015.0 - 0.0
22/03:00pm 17.2 14.4 11.2 68 3.3 SSW 17 22 9 12 1014.8 1014.6 0.0
22/02:30pm 17.5 15.0 10.9 65 3.6 SW 15 19 8 10 1014.7 - 0.0
22/02:00pm 17.5 14.2 11.5 68 3.3 SW 20 26 11 14 1014.5 1014.3 0.0
22/01:30pm 18.0 16.0 11.6 66 3.5 W 13 20 7 11 1014.6 - 0.0
22/01:00pm 17.3 15.9 12.2 72 2.8 WSW 11 22 6 12 1014.9 1014.7 0.0
22/12:30pm 15.9 13.8 12.5 80 1.9 WSW 15 20 8 11 1015.2 - 0.0
22/12:00pm 15.0 13.0 12.7 86 1.3 SW 15 22 8 12 1015.3 1015.2 0.0
22/11:30am 15.1 14.0 13.1 88 1.1 WSW 11 15 6 8 1015.5 - 0.0
22/11:00am 14.3 13.6 13.3 94 0.6 WSW 9 13 5 7 1015.5 1015.4 0.0
22/10:30am 14.8 13.9 13.7 93 0.6 W 11 15 6 8 1015.2 - 0.0
22/10:00am 14.9 14.0 13.8 93 0.6 W 11 15 6 8 1015.2 1015.0 0.0
22/09:30am 15.0 13.2 13.4 90 0.9 WNW 15 20 8 11 1015.1 - 0.0
22/09:00am 14.7 13.4 13.6 93 0.6 WNW 13 19 7 10 1014.9 1014.7 6.0
22/08:30am 13.8 14.1 13.5 98 0.2 WSW 4 6 2 3 1014.7 - 6.0
22/08:00am 13.1 13.2 12.8 98 0.2 WSW 4 4 2 2 1014.4 1014.2 6.0
22/07:30am 12.9 12.9 12.4 97 0.3 WSW 4 6 2 3 1013.9 - 6.0
22/07:00am 13.0 12.4 12.4 96 0.3 WSW 7 15 4 8 1013.8 1013.6 6.0
22/06:30am 13.0 11.3 12.4 96 0.3 N 13 15 7 8 1012.8 - 6.0
22/06:00am 13.2 12.2 12.4 95 0.4 NNE 9 13 5 7 1012.8 1012.6 6.0
22/05:30am 13.3 12.7 12.4 94 0.5 NNE 7 9 4 5 1013.8 - 2.8
22/05:00am 13.6 12.5 11.8 89 1.0 SSW 9 19 5 10 1013.4 1013.2 2.2
22/04:30am 13.4 11.8 11.6 89 1.0 NW 11 15 6 8 1013.4 - 2.2
22/04:00am 13.6 11.7 11.7 88 1.0 N 13 17 7 9 1012.5 1012.3 2.2
22/03:30am 13.2 10.8 11.3 88 1.0 N 15 20 8 11 1011.5 - 2.2
22/03:00am 13.7 12.2 10.7 82 1.6 NNW 9 11 5 6 1013.3 1013.1 0.8
22/02:30am 14.4 13.3 10.0 75 2.3 N 6 7 3 4 1012.5 - 0.4
22/02:00am 14.7 13.4 9.1 69 2.9 NNE 6 7 3 4 1012.1 1012.0 0.4
22/01:30am 13.8 12.2 10.2 79 1.9 ENE 9 13 5 7 1012.0 - 0.4
22/01:00am 14.7 13.5 9.7 72 2.6 NW 6 7 3 4 1013.2 1013.0 0.4
22/12:30am 14.2 11.7 9.8 75 2.3 N 13 15 7 8 1012.6 - 0.4
22/12:00am 14.4 12.8 10.2 76 2.2 N 9 13 5 7 1012.8 1012.6 0.4
 
Date/Time
EST
Temp
°C
App
Temp
°C
Dew
Point
Rel
Hum
%
Delta-T
°C
Wind Press
QNH
hPa
Press
MSL
hPa
Rain
since 9 am
mm
Dir
 
Spd
km/h
Gust
km/h
Spd
kts
Gust
kts
21/11:30pm 14.7 13.0 9.9 73 2.5 W 9 20 5 11 1013.6 - 0.4
21/11:00pm 16.4 13.1 8.1 58 4.2 WNW 15 20 8 11 1013.4 1013.2 0.2
21/10:30pm 16.8 11.2 7.2 53 4.8 N 26 33 14 18 1012.7 - 0.0
21/10:00pm 16.4 11.1 6.8 53 4.8 N 24 33 13 18 1012.8 1012.6 0.0
21/09:30pm 16.9 10.9 7.0 52 5.0 N 28 37 15 20 1012.8 - 0.0
21/09:00pm 17.0 10.0 6.8 51 5.1 N 33 41 18 22 1012.7 1012.5 0.0
21/08:30pm 17.3 10.5 6.8 50 5.3 N 32 41 17 22 1012.7 - 0.0
21/08:00pm 18.0 11.0 6.8 48 5.6 N 33 41 18 22 1012.8 1012.6 0.0
21/07:30pm 17.9 10.9 6.7 48 5.6 N 33 44 18 24 1012.8 - 0.0
21/07:00pm 18.2 11.2 6.7 47 5.8 N 33 44 18 24 1012.6 1012.4 0.0
21/06:30pm 18.9 11.9 6.7 45 6.2 N 33 44 18 24 1012.7 - 0.0
21/06:00pm 19.4 11.9 6.5 43 6.5 N 35 48 19 26 1011.9 1011.8 0.0
21/05:30pm 19.9 12.5 6.6 42 6.8 N 35 48 19 26 1011.8 - 0.0
21/05:00pm 20.4 12.5 6.4 40 7.1 N 37 48 20 26 1011.9 1011.8 0.0
21/04:30pm 20.6 12.7 6.2 39 7.3 N 37 52 20 28 1011.9 - 0.0
21/04:00pm 20.9 12.7 6.4 39 7.4 N 39 59 21 32 1011.9 1011.8 0.0
21/03:52pm 20.9 12.7 6.4 39 7.4 N 39 59 21 32 1011.9 - 0.0
21/03:30pm 20.9 12.2 6.1 38 7.5 N 41 54 22 29 1012.1 - 0.0
21/03:00pm 22.3 13.3 6.5 36 8.1 N 43 57 23 31 1012.5 1012.3 0.0
21/02:41pm 22.0 14.1 6.3 36 8.0 N 37 57 20 31 1012.8 - 0.0
21/02:30pm 20.7 12.1 6.3 39 7.3 N 41 56 22 30 1012.8 - 0.0
21/02:00pm 19.7 11.5 6.4 42 6.7 N 39 61 21 33 1013.2 1013.0 0.0
21/01:56pm 19.7 11.8 6.1 41 6.8 N 37 61 20 33 1013.3 - 0.0
21/01:30pm 19.6 11.2 5.6 40 7.0 N 39 50 21 27 1014.0 - 0.0
21/01:00pm 19.2 12.1 6.3 43 6.5 N 33 46 18 25 1014.9 1014.7 0.0
21/12:30pm 18.5 9.7 5.7 43 6.3 N 41 57 22 31 1014.7 - 0.0
21/12:00pm 20.1 11.0 5.7 39 7.2 N 43 59 23 32 1014.7 1014.5 0.0
21/11:30am 18.9 10.5 5.7 42 6.6 N 39 52 21 28 1015.2 - 0.0
21/11:00am 17.6 9.6 5.5 45 5.9 N 37 54 20 29 1015.7 1015.6 0.0
21/10:30am 17.5 10.2 5.4 45 5.9 N 33 48 18 26 1016.0 - 0.0
21/10:00am 17.0 8.6 5.6 47 5.6 N 39 50 21 27 1016.3 1016.2 0.0
21/09:30am 15.9 8.7 5.8 51 4.9 N 33 48 18 26 1016.7 - 0.0
21/09:00am 14.0 6.9 5.4 56 4.1 N 32 43 17 23 1017.0 1016.9 0.0
21/08:30am 13.4 7.9 5.8 60 3.6 N 24 33 13 18 1017.6 - 0.0
21/08:00am 12.3 7.6 6.1 66 3.0 N 20 30 11 16 1017.7 1017.5 0.0
21/07:30am 11.0 6.4 6.6 74 2.1 N 20 26 11 14 1017.4 - 0.0
21/07:00am 11.0 6.6 6.7 75 2.1 N 19 28 10 15 1017.4 1017.2 0.0
21/06:30am 11.4 8.1 7.9 79 1.7 N 15 19 8 10 1017.0 - 0.0
21/06:00am 11.9 8.3 8.4 79 1.7 N 17 20 9 11 1017.2 1017.0 0.0
21/05:30am 12.0 9.3 9.0 82 1.5 N 13 19 7 10 1017.3 - 0.0
21/05:00am 11.9 8.1 8.9 82 1.5 N 19 22 10 12 1016.7 1016.6 0.0
21/04:30am 11.0 7.7 8.2 83 1.4 N 15 19 8 10 1016.5 - 0.0
21/04:00am 11.0 7.7 8.1 82 1.4 N 15 19 8 10 1016.6 1016.5 0.0
21/03:30am 8.9 5.8 7.2 89 0.8 N 13 19 7 10 1016.4 - 0.0
21/03:00am 8.9 5.6 6.5 85 1.1 N 13 15 7 8 1016.8 1016.7 0.0
21/02:30am 8.0 5.1 6.3 89 0.8 N 11 15 6 8 1017.0 - 0.0
21/02:00am 8.2 5.5 5.5 83 1.2 N 9 11 5 6 1017.3 1017.1 0.0
21/01:30am 8.7 6.1 6.0 83 1.2 N 9 11 5 6 1017.3 - 0.0
21/01:00am 9.7 7.3 6.8 82 1.4 N 9 13 5 7 1017.2 1017.0 0.0
21/12:30am 9.6 6.8 6.9 83 1.3 N 11 13 6 7 1017.2 - 0.0
21/12:00am 10.7 8.9 7.2 79 1.7 N 6 9 3 5 1017.4 1017.2 0.0
 
Date/Time
EST
Temp
°C
App
Temp
°C
Dew
Point
Rel
Hum
%
Delta-T
°C
Wind Press
QNH
hPa
Press
MSL
hPa
Rain
since 9 am
mm
Dir
 
Spd
km/h
Gust
km/h
Spd
kts
Gust
kts
20/11:30pm 11.7 9.9 7.2 74 2.2 NNW 6 7 3 4 1017.4 - 0.0
20/11:00pm 11.9 10.0 6.6 70 2.5 NNW 6 7 3 4 1017.6 1017.4 0.0

Other Formats:

Comma delimited format used in spreadsheet applications
http://www.bom.gov.au/fwo/IDV60801/IDV60801.95840.axf

JavaScript Object Notation format (JSON) in row-major order
http://www.bom.gov.au/fwo/IDV60801/IDV60801.95840.json